Location: Marcé
(47.5801°N, 0.3280°W)
Time: 06:53:21
(UTC+01:00)

ISS - Pass Details

Date: 24 October 2021
Orbit: 417 x 422 km, 51.6° (Epoch: 04 December)

Event Time Altitude Azimuth Distance (km) Brightness Sun altitude
Exits shadow 07:02:33 14° 205° (SSW) 1,287 -1.5 -15.9°
Maximum altitude 07:05:02 33° 144° (SE) 722 -2.2 -15.5°
Drops below altitude 10° 07:08:06 10° 78° (ENE) 1,499 0.3 -15.0°
Sets 07:10:19 0° 69° (ENE) 2,365 1.4 -14.6°
